Time (yr/mo/day/hr) Wind Speed at 50 metres (Glencore Tower; km/hr) Wind Direction at 50 metres (Glencore Tower; degrees) Temperature (oC) SO2 Dispersion Conditions Mixing Height (m)
2020 09 23 13 9 281 22 Moderately unstable 1559
2020 09 23 14 10 279 22 Moderately unstable 1649
2020 09 23 15 10 276 23 Slightly unstable 1646
2020 09 23 16 11 278 23 Slightly unstable 1605
2020 09 23 17 11 272 23 Slightly unstable 722
2020 09 23 18 12 248 21 Neutral 1080
2020 09 23 19 15 242 18 Slightly stable 787
2020 09 23 20 15 250 18 Slightly stable 731
2020 09 23 21 15 259 17 Slightly stable 682
2020 09 23 22 14 269 16 Slightly stable 602
2020 09 23 23 13 280 16 Slightly stable 517
2020 09 24 00 12 297 15 Stable 457
2020 09 24 01 11 328 14 Stable 421
2020 09 24 02 12 4 14 Slightly stable 481
2020 09 24 03 14 17 13 Slightly stable 633
2020 09 24 04 12 21 13 Slightly stable 498
2020 09 24 05 10 33 12 Stable 360
2020 09 24 06 11 47 12 Slightly stable 421
2020 09 24 07 12 58 11 Neutral 513
2020 09 24 08 14 61 12 Neutral 790
2020 09 24 09 14 58 12 Slightly unstable 782
2020 09 24 10 14 61 13 Slightly unstable 704
2020 09 24 11 13 62 14 Moderately unstable 714
2020 09 24 12 12 69 14 Moderately unstable 716
2020 09 24 13 10 73 15 Moderately unstable 775